Total_Precipitation_Accumulation
0.07 0.09 0.04 0.01 0.00 0.00 0.00 0.01 0.01 0.02 0.01 0.02 0.04 0.05 0.09 0.13 0.17 0.21 0.19 0.16 0.14 0.12
0.13 0.07 0.02 0.02 0.02 0.00 0.00 0.01 0.01 0.01 0.01 0.01 0.02 0.04 0.10 0.18 0.22 0.31 0.37 0.25 0.23 0.17
0.10 0.10 0.06 0.04 0.01 0.01 0.01 0.00 0.01 0.01 0.01 0.02 0.02 0.04 0.13 0.21 0.30 0.43 0.48 0.48 0.48 0.43
0.06 0.12 0.07 0.05 0.03 0.02 0.01 0.01 0.01 0.01 0.01 0.00 0.01 0.05 0.13 0.23 0.30 0.39 0.55 0.61 0.65 0.57
0.05 0.05 0.10 0.10 0.07 0.02 0.02 0.02 0.01 0.01 0.00 0.00 0.01 0.06 0.12 0.25 0.32 0.44 0.53 0.61 0.64 0.65
0.04 0.07 0.09 0.09 0.12 0.07 0.03 0.03 0.01 0.00 0.00 0.00 0.01 0.05 0.09 0.20 0.32 0.49 0.64 0.74 0.80 0.84
0.06 0.08 0.14 0.11 0.07 0.08 0.06 0.03 0.02 0.01 0.00 0.00 0.01 0.03 0.05 0.09 0.23 0.38 0.52 0.65 0.77 0.85
0.11 0.11 0.09 0.17 0.17 0.08 0.04 0.03 0.01 0.01 0.00 0.00 0.00 0.00 0.03 0.05 0.11 0.24 0.35 0.48 0.60 0.63
0.04 0.11 0.16 0.14 0.19 0.20 0.13 0.02 0.00 0.00 0.01 0.00 0.00 0.03 0.02 0.02 0.03 0.05 0.18 0.40 0.46 0.52
0.03 0.05 0.06 0.12 0.18 0.15 0.06 0.03 0.01 0.00 0.00 0.00 0.00 0.02 0.03 0.04 0.02 0.00 0.04 0.21 0.35 0.36
0.06 0.04 0.04 0.03 0.08 0.18 0.22 0.12 0.03 0.01 0.00 0.00 0.00 0.03 0.03 0.06 0.01 0.03 0.04 0.08 0.19 0.28
0.08 0.06 0.06 0.05 0.05 0.08 0.13 0.16 0.09 0.03 0.01 0.00 0.00 0.03 0.07 0.09 0.02 0.06 0.08 0.09 0.10 0.12
0.28 0.19 0.11 0.07 0.07 0.07 0.10 0.13 0.15 0.15 0.09 0.04 0.01 0.04 0.08 0.12 0.05 0.11 0.11 0.11 0.12 0.28
0.34 0.35 0.29 0.20 0.11 0.07 0.08 0.10 0.17 0.14 0.13 0.09 0.07 0.04 0.06 0.08 0.04 0.05 0.09 0.12 0.13 0.14